sat.trackr.live / text

‹ back to catalog

STARLINK-1633

NORAD 46171 · 2020-057BG

PAYLOAD ACTIVE UNKNOWN

§ Identity

Operator
Country
US
Launch date
2020-08-18
Launch site
AFETR
Launch vehicle
Mass (kg)
RCS (m²)

Purposes: comms

External: N2YO · Heavens-Above · Gunter

§ Orbital elements

Epoch: 2026-05-24T23:47:03.683040Z

Period
91.34 min
Inclination
53.0341°
Eccentricity
0.0004994
Mean motion
15.76537285 rev/d
Perigee alt
336.9 km
Apogee alt
343.6 km
Semi-major
6,718.4 km
B*
7.2974e-4
RAAN
242.8267°
Arg perigee
284.6948°
Mean anomaly
75.3517°
Rev number
32,010

§ Raw data

STARLINK-16331 46171U 20057BG  26144.99101485  .00119536  00000+0  72974-3 0  99932 46171  53.0341 242.8267 0004994 284.6948  75.3517 15.76537285320108

JSON: /api/v1/satellites/46171 · /tle

For live sub-satellite position, see the globe view (requires WebGL).

§ Visibility from observer

Set your observer location to see the next 7 days of passes ≥ 10°. The values pass through the URL so the page stays shareable.

No JS? Fill the form by hand. The geolocation button needs JavaScript.